Location: Staunton
(38.1490°N, 79.0720°W)
Time: 13:25:38
(UTC-04:00)

ISS - Pass Details

Date: 23 May 2018
Orbit: 402 x 408 km, 51.6° (Epoch: 19 September)

Event Time Altitude Azimuth Distance (km) Brightness Sun altitude
Rises 03:55:48 0° 310° (NW) 2,317 0.0 -19.9°
Reaches altitude 10° 03:57:53 10° 312° (NW) 1,456 -1.0 -19.7°
Maximum altitude 04:01:08 76° 39° (NE) 418 -3.8 -19.2°
Drops below altitude 10° 04:04:24 10° 125° (SE) 1,453 -0.9 -18.8°
Sets 04:06:35 0° 127° (SE) 2,361 0.1 -18.5°
